Tracking 20626 objects as of 10-Apr-2020
HD Live streaming from Space Station
objects crossing your sky now

SL-8 DEB

Track SL-8 DEB now!
10-day predictions


NORAD ID: 5858
Int'l Code: 1971-114D
Perigee: 641.7 km
Apogee: 652.2 km
Inclination: 74.0 °
Period: 97.5 minutes
Semi major axis: 7017 km
RCS: 0.0106 m2 (small)
Launch date: December 17, 1971
Source: Commonwealth of Independent States (former USSR) (CIS)
Launch site: PLESETSK MISSILE AND SPACE COMPLEX (PKMTR)

Note: This is SATELLITE DEBRIS
aabbcc
Your satellite tracking list
Your tracking list is empty




NASA's NSSDC Master Catalog

Two Line Element Set (TLE):
1  5858U 71114D   20100.75372747 +.00000436 +00000-0 +67264-4 0  9997
2  5858 074.0099 346.3740 0007437 286.0085 074.0269 14.76682613569321
Source of the keplerian elements: AFSPC